This is the latest recevied weather packets stored in our database for station/object KD8NVS-13. If no packets are shown the sender has not sent any weather packets the latest 10 day(s).
| Time | Temp. | Humidity | Pressure | Rain* | Wind** | Luminosity | Snow |
|---|---|---|---|---|---|---|---|
| 1777927486 | 21.11° C | 60% | 997.6 hPa | 0 mm | - | 117 W/m² | - |
| 1777927185 | 21.11° C | 60% | 998 hPa | 0 mm | - | 157 W/m² | - |
| 1777926882 | 21.11° C | 59% | 998 hPa | 0 mm | - | 211 W/m² | - |
| 1777926578 | 21.11° C | 59% | 998 hPa | 0 mm | - | 134 W/m² | - |
| 1777926275 | 21.67° C | 58% | 998.3 hPa | 0 mm | - | 77 W/m² | - |
| 1777925972 | 21.67° C | 57% | 998.3 hPa | 0 mm | - | 144 W/m² | - |
| 1777925669 | 21.67° C | 57% | 998.3 hPa | 0 mm | - | 149 W/m² | - |
| 1777925362 | 21.67° C | 56% | 998.3 hPa | 0 mm | - | 153 W/m² | - |
| 1777925058 | 21.67° C | 56% | 998.3 hPa | 0 mm | - | 150 W/m² | - |
| 1777924755 | 21.67° C | 54% | 998.3 hPa | 0 mm | - | 159 W/m² | - |
| 1777924451 | 23.33° C | 52% | 998.3 hPa | 0 mm | - | 139 W/m² | - |
| 1777924147 | 23.33° C | 54% | 998.3 hPa | 0 mm | - | 178 W/m² | - |
| 1777923843 | 23.33° C | 51% | 998.3 hPa | 0 mm | - | 163 W/m² | - |
| 1777923539 | 23.33° C | 52% | 998 hPa | 0 mm | - | 137 W/m² | - |
| 1777923236 | 23.33° C | 53% | 997.6 hPa | 0 mm | - | 151 W/m² | - |
| 1777922936 | 22.78° C | 52% | 997.6 hPa | 0 mm | - | 186 W/m² | - |
| 1777922633 | 22.78° C | 54% | 998 hPa | 0 mm | - | 152 W/m² | - |
| 1777922331 | 22.22° C | 52% | 998 hPa | 0 mm | - | 119 W/m² | - |
| 1777922028 | 22.78° C | 52% | 998 hPa | 0 mm | - | 105 W/m² | - |
| 1777921723 | 22.78° C | 53% | 997.6 hPa | 0 mm | - | 100 W/m² | - |
| 1777921419 | 22.22° C | 54% | 997.6 hPa | 0 mm | - | 115 W/m² | - |
| 1777921116 | 22.78° C | 55% | 997.6 hPa | 0 mm | - | 128 W/m² | - |
| 1777920813 | 22.22° C | 52% | 998 hPa | 0 mm | - | 196 W/m² | - |
| 1777920509 | 22.22° C | 52% | 997.6 hPa | 0 mm | - | 180 W/m² | - |
| 1777920205 | 22.22° C | 54% | 998 hPa | 0 mm | - | 114 W/m² | - |
* Rain latest hour (hover to see other rain measurements)
** Current wind speed in m/s (hover to see current wind gust speed)